Weather in Stari Grad

Croatia     43°11′03″N   16°36′05″E
temp.,
°C
wind,
m/s
gust,
m/s
humid.,
%
clouds,
%
prec.,
mm/h
press.,
hPa
HPBL,
m
22 september, wed
wed2223:00+19ene23530 0.0 1021265
02:00+18nne33560 0.0 1021233
05:00+16ne33550 0.0 1021232
08:00+16nne335355 0.0 1021262
11:00+19n2339100 0.0 1020601
14:00+21nnw3435100 0.0 1019879
17:00+20nw2438100 0.0 1020831
20:00+19ne101145100 0.0 1020915
23 september, thu
thu2323:00+18ne8125084 0.0 10211083
02:00+17nne69561 0.0 1021874
05:00+16nne575765 0.0 1021579
08:00+16nne45578 0.0 1021345
11:00+19nne354112 0.0 1022975
14:00+20wnw44465 0.0 1020640
17:00+20wnw66485 0.0 1019617
20:00+19nw56595 0.0 1019461
24 september, fri
fri2423:00+19nw55615 0.0 1020429
02:00+18nw23605 0.0 1019360
05:00+18nnw22570 0.0 1019280
08:00+18ne22532 0.0 1019204
11:00+20s11455 0.0 1020441
14:00+21wsw22492 0.0 1019493
17:00+21wnw22540 0.0 1019401
20:00+20nnw22620 0.0 1019202
25 september, sat
sat2523:00+20ne11620 0.0 1020136
02:00+20n11670 0.0 1020188
05:00+19ene21650 0.0 1020135
08:00+20ene22630 0.0 1021157
11:00+22se11530 0.0 1022377
14:00+23wsw22540 0.0 1021420
17:00+23wnw33555 0.0 1020304
20:00+21nw336497 0.0 1021155
26 september, sun
sun2623:00+21nnw226413 0.0 1021120
02:00+21nnw1161100 0.0 102193
05:00+21ene226286 0.0 102080
08:00+21e33635 0.0 1020151
11:00+24sse11540 0.0 1021311
14:00+24sw21535 0.0 1020317
17:00+24w225627 0.0 1019200
20:00+22nne22645 0.0 101831